Regional Weather Roundup
Issued by NWS Upton, NY

Current Version | Previous Version | Graphics & Text | Print | Product List | Glossary Off
Versions: 1 2 3 4 5 6 7 8 9 10 11 12 13 14 15 16 17 18 19 20 21 22 23 24 25 26 27 28 29 30 31 32 33 34 35 36 37 38 39 40 41 42 43 44 45 46 47 48 49 50

000
ASUS41 KOKX 311804
RWROKX

REGIONAL WEATHER ROUNDUP
NATIONAL WEATHER SERVICE NEW YORK NY
200 PM EDT FRI JUL 31 2015

NOTE: "FAIR" INDICATES FEW OR NO CLOUDS BELOW 12,000 FEET WITH NO
SIGNIFICANT WEATHER AND/OR OBSTRUCTIONS TO VISIBILITY.

NYZ071-072-176-178-NJZ106-104-311900-
NEW YORK CITY METRO AREA


CITY           SKY/WX    TMP DP  RH WIND       PRES   REMARKS
CENTRAL PARK   SUNNY     88  55  32 VRB6      29.87F
LAGUARDIA APRT MOSUNNY   87  55  33 W8        29.83F
KENNEDY INTL   MOSUNNY   92  51  24 NW12      29.84F
NEWARK/LIBERTY MOSUNNY   91  55  29 NW12      29.84F
BRNX BOT. GARD   N/A     86  55  35 W8        29.85F
TETERBORO      MOSUNNY   88  55  32 NW14      29.83F
$$

NYZ177-179-078>081-311900-
LONG ISLAND NEW YORK

CITY           SKY/WX    TMP DP  RH WIND       PRES   REMARKS
FARMINGDALE    SUNNY     90  54  29 NW13G21   29.84F
ISLIP          MOSUNNY   89  55  31 W15       29.82F
SHIRLEY        SUNNY     89  53  29 W9G17     29.84F
WESTHAMPTON    SUNNY     88  59  37 SW10      29.84F
MONTAUK POINT    N/A     87  58  37 W9        29.84F
$$

NYZ052-065-067-311900-
HUDSON VALLEY

CITY           SKY/WX    TMP DP  RH WIND       PRES   REMARKS
WHITE PLAINS   MOSUNNY   85  56  37 NW9       29.85F
NEWBURGH       SUNNY     86  54  32 NW12G23   29.86F
MONTGOMERY     SUNNY     87  56  34 W12G18    29.85F
POUGHKEEPSIE   MOSUNNY   88  54  31 W14       29.82F
ALBANY         MOSUNNY   83  56  39 W7G17     29.83F
$$

NJZ001-105-106-008-010-013-015-019>022-104-311900-
NEW JERSEY

CITY           SKY/WX    TMP DP  RH WIND       PRES   REMARKS
NEWARK/LIBERTY MOSUNNY   91  55  29 NW12      29.84F
TETERBORO      MOSUNNY   88  55  32 NW14      29.83F
CALDWELL       MOSUNNY   87  57  35 W9G17     29.86F
MORRISTOWN     PTSUNNY   90  57  33 NW7G16    29.86F
SOMERVILLE     MOSUNNY   87  58  37 VRB7G17   29.85F
SUSSEX         SUNNY     84  54  35 W10       29.88S
ANDOVER          N/A     84  54  35 N8        29.88F
TRENTON        MOSUNNY   88  55  32 NW10      29.87S
MILLVILLE      MOSUNNY   89  56  32 N9        29.89F
ATLANTIC CITY  MOSUNNY   88  60  38 NW9       29.88F
WRIGHTSTOWN    MOSUNNY   88  59  38 W12       29.85F
TOMS RIVER       N/A     88  55  33 CALM      29.87F
BELMAR         SUNNY     88  57  35 W5        29.86F
$$

PAZ047>061-062-071-311900-
EASTERN PENNSYLVANIA

CITY           SKY/WX    TMP DP  RH WIND       PRES   REMARKS
PHILADELPHIA   MOSUNNY   88  54  31 NW8G17    29.88F
ALLENTOWN      MOSUNNY   86  60  41 W8        29.88F
SCRANTON       SUNNY     84  52  33 W6        29.90F
$$

CTZ002-004>006-009-010-012-RIZ004-006-007-MAZ004-011-015-311900-
SOUTHERN NEW ENGLAND
 IN CT

CITY           SKY/WX    TMP DP  RH WIND       PRES   REMARKS
BRADLEY INTL   MOSUNNY   87  54  32 W14G21    29.80F
HARTFORD       MOSUNNY   87  56  34 W9        29.80F
DANBURY        SUNNY     84  52  33 W7        29.85F
WTRBRY/OXFORD  MOSUNNY   82  59  44 NW7       29.88F
BRIDGEPORT     SUNNY     86  65  49 SW15      29.82F
MERIDEN        SUNNY     88  55  32 VRB7      29.82F
NEW HAVEN      MOSUNNY   82  64  54 SW10      29.82F
CHESTER        FAIR      82  64  54 SW7       29.84S
GROTON         MOSUNNY   81  64  56 SW14      29.81F
WILLIMANTIC    MOSUNNY   87  54  32 W15G21    29.81F

 IN RI

CITY           SKY/WX    TMP DP  RH WIND       PRES   REMARKS
PROVIDENCE     MOSUNNY   87  58  37 W12G25    29.80F
BLOCK ISLAND     N/A     84  64  51 W13       29.84S
WESTERLY       SUNNY     83  62  49 SW10      29.82F

 IN MA

CITY           SKY/WX    TMP DP  RH WIND       PRES   REMARKS
BOSTON         MOSUNNY   87  54  32 W12G20    29.75F
WORCESTER      SUNNY     80  54  40 W15G23    29.83F
WESTFIELD      SUNNY     87  54  32 W14G23    29.81F
PROVINCETOWN   SUNNY     86  61  42 SW8       29.77F
NANTUCKET      SUNNY     84  65  52 W14       29.81S
$$

ANZ330-335-338-340-345-350-353-355-311900-
COASTAL MARINE OBSERVATIONS


STATION/POSITION TIME  SKY/WX   TEMP    WIND        PRES    VSBY  WAVE
                                AIR SEA DIR/SP/G                  HT/PER
                 (UTC)          (F)     (DEG/KT/KT) (MB)    (MI)  (FT/S)
NY HARB ENTRANCE 1650            78 78  260/  6/  8 1011.1          2/ 6
4S FIRE IS       NOT AVBL
20S FIRE ISLAND  1650            76 76  280/  8/ 10 1011.1          3/ 6
GREAT SOUTH BAY  1700            79 82  260/ 12/ 14   N/A
23SW MTP         1750            75 75  270/  6/  6 1010.2          3/ 7
HUDSON CANYON    NOT AVBL
KINGS POINT      1700            82 69   10/  4/  6 1010.2
EXECUTION ROCKS  1700            80     290/  4/  8   N/A
CENTRAL LI SOUND NOT AVBL
EASTERN LI SOUND 1700            73 69  240/ 10/ 14   N/A
ROBBINS REEF     1700            84     320/  9/ 15 1009.8
$$


>>>>>>>>>>>>>>>>>>>>>>>>>>>> KEY <<<<<<<<<<<<<<<<<<<<<<<<<<<
>                                                          <
>     SKY/WX - SKY CONDITION/PRESENT WEATHER               <
>     TMP    - TEMPERATURE IN FAHRENHEIT                   <
>     DP     - DEWPOINT IN FAHRENHEIT                      <
>     RH     - RELATIVE HUMIDITY IN PERCENT                <
>     WIND   - DIRECTION AND SPEED IN MPH                  <
>     PRES   - MEAN SEA LEVEL PRESSURE IN INCHES OF HG     <
>     WCI    - WIND CHILL INDEX                            <
>     VSB    - VISIBILITY IN MILES                         <
>     HX     - HEAT INDEX                                  <
>     TC     - TEMPERATURE IN CELSIUS                      <
>     VRB    - VARIABLE WIND DIRECTION                     <
>                                                          <
>>>>>>>>>>>>>>>>>>>>>>>>>>>> KEY <<<<<<<<<<<<<<<<<<<<<<<<<<<





USA.gov is the U.S. government's official web portal to all federal, state and local government web resources and services.